User: anonymous   Login
Location: *
(49.3500°N, 12.6000°E)
Time: 12:30:47
(UTC+00:00)
Language:

STARLINK-35 - Orbit

View from above orbital plane
View from above orbital plane
View from above satellite
View from above satellite

Ground track
Ground track

The orbit data is extracted from the following two-line orbital elements,

1 44264U 19029AF  19350.16667824 -.00027883  00000-0 -15879-2 0  9991
2 44264  53.0029 326.2134 0001368  91.7663 259.1977 15.12146577 31195
Epoch (UTC): 16 December 2019 04:00:01
Eccentricity: 0.0001368
inclination: 53.0029°
perigee height: 529 km
apogee height: 530 km
right ascension of ascending node: 326.2134°
argument of perigee: 91.7663°
revolutions per day: 15.12146577
mean anomaly at epoch: 259.1977°
orbit number at epoch: 3119

The dashed part of the orbit path shows where the satellite is in the earth's shadow,  

DLR